Time,TemperatureF,DewpointF,PressureIn,WindDirection,WindDirectionDegrees,WindSpeedMPH,WindSpeedGustMPH,Humidity,HourlyPrecipIn,Conditions,Clouds,dailyrainin,SoftwareType,DateUTC
2013-04-23 00:04:00,49.1,31.0,29.48,SE,129,1.0,5.0,51,0.00,,,0.00,weatherlink.com 1.10,2013-04-23 04:04:00,
2013-04-23 00:19:00,48.8,32.0,29.47,SE,146,2.0,4.0,53,0.00,,,0.00,weatherlink.com 1.10,2013-04-23 04:19:00,
2013-04-23 00:34:00,48.7,33.0,29.47,SE,145,1.0,5.0,54,0.00,,,0.00,weatherlink.com 1.10,2013-04-23 04:34:00,
2013-04-23 00:49:00,48.8,33.0,29.47,South,184,2.0,5.0,55,0.00,,,0.00,weatherlink.com 1.10,2013-04-23 04:49:00,
2013-04-23 01:04:00,48.5,33.0,29.46,SSE,153,1.0,6.0,56,0.00,,,0.00,weatherlink.com 1.10,2013-04-23 05:04:00,
2013-04-23 01:19:00,48.0,34.0,29.46,SE,139,1.0,2.0,58,0.00,,,0.00,weatherlink.com 1.10,2013-04-23 05:19:00,
2013-04-23 01:34:00,47.9,34.0,29.46,SSE,160,2.0,4.0,58,0.00,,,0.00,weatherlink.com 1.10,2013-04-23 05:34:00,
2013-04-23 01:49:00,47.2,34.0,29.45,SE,129,0.0,3.0,60,0.00,,,0.00,weatherlink.com 1.10,2013-04-23 05:49:00,
2013-04-23 02:04:00,45.2,34.0,29.44,SE,129,0.0,1.0,64,0.00,,,0.00,weatherlink.com 1.10,2013-04-23 06:04:00,
2013-04-23 02:19:00,45.1,34.0,29.44,SE,129,0.0,2.0,65,0.00,,,0.00,weatherlink.com 1.10,2013-04-23 06:19:00,
2013-04-23 02:35:00,45.0,34.0,29.43,SE,141,1.0,2.0,66,0.00,,,0.00,weatherlink.com 1.10,2013-04-23 06:35:00,
2013-04-23 02:50:00,44.8,34.0,29.42,SE,131,0.0,2.0,67,0.00,,,0.00,weatherlink.com 1.10,2013-04-23 06:50:00,
2013-04-23 03:05:00,44.5,34.0,29.42,SE,132,0.0,1.0,67,0.00,,,0.00,weatherlink.com 1.10,2013-04-23 07:05:00,
2013-04-23 03:20:00,44.6,34.0,29.41,SE,134,0.0,2.0,66,0.00,,,0.00,weatherlink.com 1.10,2013-04-23 07:20:00,
2013-04-23 03:35:00,42.9,34.0,29.41,SE,134,0.0,1.0,71,0.00,,,0.00,weatherlink.com 1.10,2013-04-23 07:35:00,
2013-04-23 03:50:00,41.8,34.0,29.40,SE,134,0.0,0.0,74,0.00,,,0.00,weatherlink.com 1.10,2013-04-23 07:50:00,
2013-04-23 04:05:00,40.6,34.0,29.40,SE,134,0.0,0.0,77,0.00,,,0.00,weatherlink.com 1.10,2013-04-23 08:05:00,
2013-04-23 04:20:00,39.9,34.0,29.39,SE,134,0.0,0.0,79,0.00,,,0.00,weatherlink.com 1.10,2013-04-23 08:20:00,
2013-04-23 04:35:00,39.5,34.0,29.39,SE,134,0.0,0.0,80,0.00,,,0.00,weatherlink.com 1.10,2013-04-23 08:35:00,
2013-04-23 04:50:00,39.5,34.0,29.38,SE,134,0.0,0.0,80,0.00,,,0.00,weatherlink.com 1.10,2013-04-23 08:50:00,
2013-04-23 05:05:00,39.3,34.0,29.37,SE,134,0.0,0.0,81,0.00,,,0.00,weatherlink.com 1.10,2013-04-23 09:05:00,
2013-04-23 05:20:00,39.5,34.0,29.36,SE,134,0.0,0.0,81,0.00,,,0.00,weatherlink.com 1.10,2013-04-23 09:20:00,
2013-04-23 05:35:00,40.6,35.0,29.35,SE,139,0.0,3.0,79,0.00,,,0.00,weatherlink.com 1.10,2013-04-23 09:35:00,
2013-04-23 05:50:00,42.4,35.0,29.34,SSE,148,2.0,2.0,76,0.00,,,0.00,weatherlink.com 1.10,2013-04-23 09:50:00,
2013-04-23 06:05:00,43.5,36.0,29.33,South,169,1.0,2.0,74,0.00,,,0.00,weatherlink.com 1.10,2013-04-23 10:05:00,
2013-04-23 06:20:00,44.3,36.0,29.33,SSE,158,1.0,3.0,73,0.00,,,0.00,weatherlink.com 1.10,2013-04-23 10:20:00,
2013-04-23 06:35:00,44.7,36.0,29.33,SSE,152,1.0,3.0,72,0.00,,,0.00,weatherlink.com 1.10,2013-04-23 10:35:00,
2013-04-23 06:50:00,45.5,37.0,29.33,SSE,166,2.0,4.0,71,0.00,,,0.00,weatherlink.com 1.10,2013-04-23 10:50:00,
2013-04-23 07:05:00,46.3,37.0,29.33,SSE,154,3.0,7.0,69,0.00,,,0.00,weatherlink.com 1.10,2013-04-23 11:05:00,
2013-04-23 07:20:00,46.8,37.0,29.33,SSE,165,4.0,7.0,68,0.00,,,0.00,weatherlink.com 1.10,2013-04-23 11:20:00,
2013-04-23 07:35:00,47.5,37.0,29.33,SSE,166,3.0,6.0,67,0.00,,,0.00,weatherlink.com 1.10,2013-04-23 11:35:00,
2013-04-23 07:50:00,47.6,37.0,29.33,South,177,2.0,7.0,67,0.00,,,0.00,weatherlink.com 1.10,2013-04-23 11:50:00,
2013-04-23 08:05:00,48.1,38.0,29.32,South,191,4.0,7.0,67,0.00,,,0.00,weatherlink.com 1.10,2013-04-23 12:05:00,
2013-04-23 08:20:00,48.5,38.0,29.30,South,190,4.0,10.0,66,0.00,,,0.00,weatherlink.com 1.10,2013-04-23 12:20:00,
2013-04-23 08:35:00,48.9,38.0,29.30,South,181,2.0,10.0,66,0.00,,,0.00,weatherlink.com 1.10,2013-04-23 12:35:00,
2013-04-23 08:51:00,50.8,39.0,29.30,SE,136,1.0,10.0,64,0.00,,,0.00,weatherlink.com 1.10,2013-04-23 12:51:00,
2013-04-23 09:06:00,52.5,40.0,29.31,SSE,148,6.0,11.0,62,0.00,,,0.00,weatherlink.com 1.10,2013-04-23 13:06:00,
2013-04-23 09:21:00,53.4,40.0,29.31,SW,223,8.0,10.0,60,0.00,,,0.00,weatherlink.com 1.10,2013-04-23 13:21:00,
2013-04-23 09:36:00,53.8,40.0,29.31,SW,214,4.0,10.0,60,0.00,,,0.00,weatherlink.com 1.10,2013-04-23 13:36:00,
2013-04-23 09:51:00,54.8,41.0,29.30,SSE,158,5.0,11.0,59,0.00,,,0.00,weatherlink.com 1.10,2013-04-23 13:51:00,
2013-04-23 10:06:00,57.0,41.0,29.29,South,186,7.0,12.0,56,0.00,,,0.00,weatherlink.com 1.10,2013-04-23 14:06:00,
2013-04-23 10:21:00,59.4,42.0,29.30,South,187,6.0,10.0,53,0.00,,,0.00,weatherlink.com 1.10,2013-04-23 14:21:00,
2013-04-23 10:36:00,59.1,42.0,29.29,SSW,204,4.0,10.0,53,0.00,,,0.00,weatherlink.com 1.10,2013-04-23 14:36:00,
2013-04-23 10:51:00,58.6,42.0,29.29,SSW,200,2.0,10.0,55,0.00,,,0.00,weatherlink.com 1.10,2013-04-23 14:51:00,
2013-04-23 11:06:00,58.4,42.0,29.28,SSW,201,6.0,10.0,55,0.00,,,0.00,weatherlink.com 1.10,2013-04-23 15:06:00,
2013-04-23 11:21:00,59.2,43.0,29.28,SSE,165,6.0,10.0,55,0.00,,,0.00,weatherlink.com 1.10,2013-04-23 15:21:00,
2013-04-23 11:36:00,58.9,44.0,29.29,SW,222,4.0,10.0,58,0.00,,,0.00,weatherlink.com 1.10,2013-04-23 15:36:00,
2013-04-23 11:51:00,58.2,45.0,29.29,South,169,4.0,11.0,62,0.00,,,0.00,weatherlink.com 1.10,2013-04-23 15:51:00,
2013-04-23 12:06:00,56.9,46.0,29.28,SW,218,3.0,8.0,67,0.00,,,0.00,weatherlink.com 1.10,2013-04-23 16:06:00,
2013-04-23 12:21:00,57.0,47.0,29.28,SSW,210,2.0,4.0,69,0.00,,,0.00,weatherlink.com 1.10,2013-04-23 16:21:00,
2013-04-23 12:36:00,57.4,48.0,29.27,SSW,203,1.0,4.0,70,0.00,,,0.00,weatherlink.com 1.10,2013-04-23 16:36:00,
2013-04-23 12:51:00,57.4,48.0,29.27,SW,215,1.0,2.0,70,0.00,,,0.00,weatherlink.com 1.10,2013-04-23 16:51:00,
2013-04-23 13:06:00,57.2,47.0,29.26,SSE,150,1.0,3.0,70,0.00,,,0.00,weatherlink.com 1.10,2013-04-23 17:06:00,
2013-04-23 13:21:00,57.9,48.0,29.24,SE,146,0.0,2.0,70,0.00,,,0.00,weatherlink.com 1.10,2013-04-23 17:21:00,
2013-04-23 13:36:00,58.5,49.0,29.23,East,101,3.0,4.0,70,0.00,,,0.00,weatherlink.com 1.10,2013-04-23 17:36:00,
2013-04-23 13:51:00,58.7,48.0,29.23,SSE,159,0.0,3.0,68,0.00,,,0.00,weatherlink.com 1.10,2013-04-23 17:51:00,
2013-04-23 14:06:00,58.6,50.0,29.23,SSE,154,0.0,2.0,72,0.00,,,0.00,weatherlink.com 1.10,2013-04-23 18:06:00,
2013-04-23 14:21:00,59.6,51.0,29.21,SE,126,4.0,5.0,72,0.00,,,0.00,weatherlink.com 1.10,2013-04-23 18:21:00,
2013-04-23 14:36:00,61.3,49.0,29.20,SE,127,3.0,4.0,65,0.00,,,0.00,weatherlink.com 1.10,2013-04-23 18:36:00,
2013-04-23 14:51:00,61.7,48.0,29.19,South,190,5.0,9.0,61,0.00,,,0.00,weatherlink.com 1.10,2013-04-23 18:51:00,
2013-04-23 15:06:00,62.0,48.0,29.19,SE,143,2.0,9.0,61,0.00,,,0.00,weatherlink.com 1.10,2013-04-23 19:06:00,
2013-04-23 15:21:00,60.3,50.0,29.20,SW,217,5.0,11.0,68,0.01,,,0.01,weatherlink.com 1.10,2013-04-23 19:21:00,
2013-04-23 15:36:00,59.6,50.0,29.19,SW,215,4.0,16.0,71,0.01,,,0.01,weatherlink.com 1.10,2013-04-23 19:36:00,
2013-04-23 15:52:00,58.9,51.0,29.18,SSE,161,1.0,7.0,74,0.02,,,0.02,weatherlink.com 1.10,2013-04-23 19:52:00,
2013-04-23 16:07:00,58.4,51.0,29.17,SSE,158,1.0,4.0,76,0.02,,,0.02,weatherlink.com 1.10,2013-04-23 20:07:00,
2013-04-23 16:22:00,58.7,51.0,29.17,SSE,157,2.0,4.0,75,0.02,,,0.03,weatherlink.com 1.10,2013-04-23 20:22:00,
2013-04-23 16:37:00,58.0,51.0,29.16,SSW,207,1.0,2.0,78,0.02,,,0.03,weatherlink.com 1.10,2013-04-23 20:37:00,
2013-04-23 16:52:00,58.0,53.0,29.15,SE,127,1.0,2.0,82,0.01,,,0.03,weatherlink.com 1.10,2013-04-23 20:52:00,
2013-04-23 17:07:00,58.2,52.0,29.15,South,179,1.0,1.0,81,0.02,,,0.04,weatherlink.com 1.10,2013-04-23 21:07:00,
2013-04-23 17:22:00,57.7,53.0,29.16,SW,233,1.0,4.0,84,0.02,,,0.05,weatherlink.com 1.10,2013-04-23 21:22:00,
2013-04-23 17:37:00,56.2,52.0,29.16,SW,222,2.0,4.0,87,0.04,,,0.07,weatherlink.com 1.10,2013-04-23 21:37:00,
2013-04-23 17:52:00,55.9,52.0,29.15,SW,224,1.0,3.0,88,0.04,,,0.07,weatherlink.com 1.10,2013-04-23 21:52:00,
2013-04-23 18:07:00,55.9,52.0,29.15,SW,218,2.0,4.0,88,0.03,,,0.07,weatherlink.com 1.10,2013-04-23 22:07:00,
2013-04-23 18:22:00,55.7,53.0,29.15,SW,217,2.0,5.0,89,0.03,,,0.08,weatherlink.com 1.10,2013-04-23 22:22:00,
2013-04-23 18:37:00,55.0,53.0,29.15,SW,226,2.0,8.0,91,0.03,,,0.10,weatherlink.com 1.10,2013-04-23 22:37:00,
2013-04-23 18:52:00,54.6,52.0,29.14,SW,215,1.0,4.0,92,0.05,,,0.12,weatherlink.com 1.10,2013-04-23 22:52:00,
2013-04-23 19:07:00,54.3,52.0,29.14,SSE,160,1.0,3.0,93,0.06,,,0.13,weatherlink.com 1.10,2013-04-23 23:07:00,
2013-04-23 19:22:00,54.1,53.0,29.13,SE,146,0.0,2.0,94,0.07,,,0.15,weatherlink.com 1.10,2013-04-23 23:22:00,
2013-04-23 19:37:00,54.0,52.0,29.12,SE,139,1.0,2.0,94,0.07,,,0.17,weatherlink.com 1.10,2013-04-23 23:37:00,
2013-04-23 19:52:00,53.8,52.0,29.11,South,181,1.0,5.0,94,0.05,,,0.17,weatherlink.com 1.10,2013-04-23 23:52:00,
2013-04-23 20:07:00,53.9,53.0,29.12,South,184,3.0,6.0,95,0.06,,,0.19,weatherlink.com 1.10,2013-04-24 00:07:00,
2013-04-23 20:22:00,53.9,53.0,29.12,SSW,210,1.0,6.0,95,0.06,,,0.21,weatherlink.com 1.10,2013-04-24 00:22:00,
2013-04-23 20:37:00,53.8,52.0,29.12,SW,221,1.0,4.0,95,0.06,,,0.23,weatherlink.com 1.10,2013-04-24 00:37:00,
2013-04-23 20:52:00,53.6,52.0,29.12,SW,231,1.0,5.0,95,0.07,,,0.24,weatherlink.com 1.10,2013-04-24 00:52:00,
2013-04-23 21:07:00,53.4,52.0,29.13,SSW,212,1.0,4.0,95,0.06,,,0.25,weatherlink.com 1.10,2013-04-24 01:07:00,
2013-04-23 21:22:00,51.2,48.0,29.14,WNW,298,14.0,23.0,89,0.05,,,0.26,weatherlink.com 1.10,2013-04-24 01:22:00,
2013-04-23 21:37:00,46.3,44.0,29.16,WNW,291,4.0,13.0,91,0.03,,,0.26,weatherlink.com 1.10,2013-04-24 01:37:00,
2013-04-23 21:52:00,45.0,43.0,29.17,ENE,68,3.0,11.0,92,0.04,,,0.28,weatherlink.com 1.10,2013-04-24 01:52:00,
2013-04-23 22:07:00,44.1,42.0,29.17,WNW,301,7.0,11.0,92,0.03,,,0.28,weatherlink.com 1.10,2013-04-24 02:07:00,
2013-04-23 22:22:00,43.2,41.0,29.17,NNE,23,3.0,10.0,91,0.02,,,0.28,weatherlink.com 1.10,2013-04-24 02:22:00,
2013-04-23 22:37:00,42.5,40.0,29.18,NW,318,5.0,9.0,92,0.03,,,0.29,weatherlink.com 1.10,2013-04-24 02:37:00,
2013-04-23 23:22:00,40.3,38.0,29.18,West,281,3.0,6.0,92,0.04,,,0.32,weatherlink.com 1.10,2013-04-24 03:22:00,